Weather History for Almeria, Spain

Change the Weather History Date:

Friday, January 25, 2013

  Actual Average Record
Temperature  
Mean Temperature 55 °F -  
Max Temperature 59 °F 60 °F 69 °F (2014)
Min Temperature 51 °F 47 °F 39 °F (2007)
Degree Days  
Heating Degree Days 10    
Growing Degree Days 5 (Base 50)    
Moisture  
Dew Point 46 °F    
Average Humidity 67    
Maximum Humidity 88    
Minimum Humidity 26    
Precipitation  
Precipitation 0.00 in 0.03 in - ()
Sea Level Pressure  
Sea Level Pressure 29.99 in    
Wind  
Wind Speed 4 mph ()    
Max Wind Speed 10 mph    
Max Gust Speed -    
Visibility 6.8 miles    
Events Rain    
Averages and records for this station are not official NWS values.
T = Trace of Precipitation, MM = Missing Value Source: Averaged Metar Reports

Daily Weather History Graph

Daily Weather History Graph

Search for Another Location

Airport:

Trip Planner

Search our weather history database for the weather conditions in past years. The results will help you decide how hot, cold, wet, or windy it might be!

Date:

Astronomy

Jan. 25, 2013 Rise Set
Actual Time 8:16 AM CET 6:27 PM CET
Civil Twilight 7:49 AM CET 6:55 PM CET
Nautical Twilight 7:17 AM CET 7:26 PM CET
Astronomical Twilight 6:46 AM CET 7:57 PM CET
Moon 5:11 PM CET (1/25) 6:46 AM CET (1/25)
Length of Visible Light 11h 06m
Length of Day
10h 10m
Waxing Gibbous, 97% of the Moon is Illuminated
Jan 25
Waxing Gibbous
Jan 27
Full
Feb 3
Last Quarter
Feb 10
New
Feb 17
First Quarter

Hourly Weather History & Observations

Time (CET) Temp. Dew Point Humidity Pressure Visibility Wind Dir Wind Speed Gust Speed Precip Events Conditions
1:00 AM 60 °F 34 °F 26% 29.94 in - NNW 6.9 mph - -  
5:00 AM 55.4 °F 41.0 °F 58% 29.95 in 6.2 mi West 5.8 mph - N/A   Partly Cloudy
5:30 AM 57.2 °F 41.0 °F 55% 29.95 in 6.2 mi WNW 8.1 mph - N/A   Partly Cloudy
6:00 AM 57.2 °F 41.0 °F 55% 29.98 in 6.2 mi WNW 4.6 mph - N/A   Partly Cloudy
6:30 AM 55.4 °F 41.0 °F 58% 29.98 in 6.2 mi Variable 1.2 mph - N/A   Partly Cloudy
7:00 AM 52 °F 39 °F 49% 29.98 in 19 mi ENE 4.6 mph - -   Scattered Clouds
7:00 AM 53.6 °F 41.0 °F 62% 29.98 in 6.2 mi ENE 3.5 mph - N/A   Partly Cloudy
7:30 AM 55.4 °F 41.0 °F 58% 29.98 in 6.2 mi NE 4.6 mph - N/A   Partly Cloudy
8:00 AM 53.6 °F 41.0 °F 62% 29.98 in 6.2 mi Variable 2.3 mph - N/A   Partly Cloudy
8:30 AM 55.4 °F 41.0 °F 58% 29.98 in 6.2 mi North 4.6 mph - N/A   Partly Cloudy
9:00 AM 57.2 °F 42.8 °F 59% 29.98 in 6.2 mi NNE 6.9 mph - N/A   Partly Cloudy
9:30 AM 57.2 °F 44.6 °F 63% 29.98 in 6.2 mi NNE 4.6 mph - N/A   Partly Cloudy
10:00 AM 59.0 °F 44.6 °F 59% 29.98 in 6.2 mi NE 6.9 mph - N/A   Partly Cloudy
10:30 AM 59.0 °F 46.4 °F 63% 30.01 in 6.2 mi ENE 4.6 mph - N/A   Partly Cloudy
11:00 AM 59.0 °F 48.2 °F 67% 30.01 in 6.2 mi East 5.8 mph - N/A   Scattered Clouds
11:30 AM 59.0 °F 48.2 °F 67% 30.04 in 6.2 mi East 4.6 mph - N/A   Scattered Clouds
12:00 PM 59.0 °F 42.8 °F 55% 30.04 in 6.2 mi Calm Calm - N/A   Scattered Clouds
12:30 PM 59.0 °F 44.6 °F 59% 30.04 in 6.2 mi Variable 2.3 mph - N/A Rain Light Rain
1:00 PM 58 °F 46 °F 56% 30.03 in 12 mi NNW 3.5 mph - - Rain Light Rain
1:00 PM 59.0 °F 48.2 °F 67% 30.01 in 6.2 mi North 3.5 mph - N/A Rain Light Rain
1:30 PM 60.8 °F 48.2 °F 63% 30.01 in 6.2 mi WNW 6.9 mph - N/A   Scattered Clouds
2:00 PM 60.8 °F 48.2 °F 63% 29.98 in 6.2 mi WSW 5.8 mph - N/A   Scattered Clouds
2:30 PM 60.8 °F 48.2 °F 63% 29.98 in 6.2 mi West 3.5 mph - N/A   Scattered Clouds
3:00 PM 59.0 °F 51.8 °F 77% 29.98 in 6.2 mi SSW 10.4 mph - N/A   Scattered Clouds
3:30 PM 59.0 °F 50.0 °F 72% 29.98 in 6.2 mi SW 8.1 mph - N/A   Scattered Clouds
4:00 PM 59.0 °F 50.0 °F 72% 29.98 in 6.2 mi SW 4.6 mph - N/A   Scattered Clouds
4:30 PM 59.0 °F 51.8 °F 77% 29.98 in 6.2 mi Variable 2.3 mph - N/A   Scattered Clouds
5:00 PM 59.0 °F 51.8 °F 77% 29.98 in 6.2 mi Variable 1.2 mph - N/A   Scattered Clouds
5:30 PM 57.2 °F 53.6 °F 88% 29.98 in 6.2 mi South 4.6 mph - N/A   Scattered Clouds
6:00 PM 57.2 °F 53.6 °F 88% 29.98 in 6.2 mi SSW 3.5 mph - N/A   Scattered Clouds
6:30 PM 57.2 °F 51.8 °F 82% 29.98 in 6.2 mi Variable 2.3 mph - N/A   Scattered Clouds
7:00 PM 55 °F 49 °F 75% 30.00 in 12 mi Calm Calm - -   Partly Cloudy
7:00 PM 57.2 °F 51.8 °F 82% 29.98 in 6.2 mi Calm Calm - N/A   Scattered Clouds
7:30 PM 55.4 °F 50.0 °F 82% 30.01 in 6.2 mi Variable 1.2 mph - N/A   Scattered Clouds
8:00 PM 53.6 °F 48.2 °F 82% 29.98 in 6.2 mi Calm Calm - N/A   Scattered Clouds
8:30 PM 53.6 °F 48.2 °F 82% 30.01 in 6.2 mi Calm Calm - N/A   Scattered Clouds
9:00 PM 53.6 °F 46.4 °F 77% 30.01 in 6.2 mi NNE 3.5 mph - N/A   Partly Cloudy
9:30 PM 53.6 °F 46.4 °F 77% 30.01 in 6.2 mi Variable 2.3 mph - N/A   Partly Cloudy
10:00 PM 51.8 °F 46.4 °F 82% 30.01 in 6.2 mi Variable 1.2 mph - N/A   Partly Cloudy
10:30 PM 53.6 °F 46.4 °F 77% 30.01 in 6.2 mi Variable 2.3 mph - N/A   Partly Cloudy